Tracking 17842 objects as of 30-August-2016
HD Live streaming from Space Station
objects crossing your sky now

TDRS 3

Track TDRS 3 now!
TDRS 3 is classified as:


NORAD ID: 19548
Int'l Code: 1988-091B
Perigee: 35,646.2 km
Apogee: 35,938.9 km
Inclination: 14.8 °
Period: 1,436.0 minutes
Semi major axis: 42163 km
RCS: 38.9601 m2 (large)
Launch date: September 29, 1988
Source: United States (US)
Launch site: AIR FORCE EASTERN TEST RANGE (AFETR)

Backup; still partially operational.
Your satellite tracking list
Your tracking list is empty





NASA's NSSDC Master Catalog

Two Line Element Set (TLE):
1 19548U 88091B   16242.39532891 -.00000322  00000-0  00000+0 0  9995
2 19548  14.8346  11.2216 0034710 302.6436 104.2630  1.00276093 89480
Source of the keplerian elements: AFSPC

N2YO: 954